Temp
55 55 55 55 55 54 54 54 55 55 56 56 56 56 56 56 55 47 48 50 52 45 50 60 63 56 58 55 51 56 56 57 56 51 49 51 52 57 51 54 50 49 46 45 47 45 46 66 66 59 59 57 62 61
55 55 55 55 55 54 54 54 55 55 55 55 55 55 55 55 55 53 45 55 56 50 51 59 64 66 65 62 57 55 56 54 54 51 49 49 52 49 49 46 55 48 51 46 50 48 54 59 56 57 60 59 63 62
55 55 55 55 55 54 54 54 54 55 55 55 55 55 55 55 54 51 42 46 50 47 51 53 58 66 63 65 65 55 54 59 55 57 51 50 50 49 46 50 51 54 55 49 50 52 55 57 57 57 59 58 62 66
55 55 54 54 54 54 54 54 54 55 55 55 55 55 55 54 53 53 42 46 47 47 43 52 67 63 69 67 66 62 61 59 57 55 52 50 51 53 50 52 50 51 53 50 50 52 57 59 55 57 58 62 64 66
54 54 54 54 54 54 54 54 54 55 55 55 55 55 55 54 53 48 43 47 51 49 43 47 57 64 65 66 63 60 59 55 52 52 50 50 53 53 51 51 48 51 50 47 46 52 52 53 55 58 59 59 60 62
54 54 53 53 54 54 54 54 54 54 55 55 54 54 54 53 52 44 47 50 51 48 46 43 56 58 60 62 59 55 57 54 54 52 51 52 55 53 47 45 53 54 55 53 51 56 55 56 58 59 58 60 61 59
53 54 53 53 53 53 54 54 54 54 54 54 54 53 53 52 43 45 48 51 50 46 47 44 48 58 64 59 58 57 56 55 54 50 50 51 53 52 47 44 54 54 55 56 56 55 53 55 54 60 62 60 59 60
53 53 53 53 53 53 53 53 54 54 54 54 53 53 52 52 49 45 50 53 49 47 48 43 48 54 61 55 54 56 55 53 54 54 51 50 51 48 45 50 52 57 58 56 57 57 56 56 56 59 61 60 58 58
53 53 53 53 53 53 53 53 53 53 53 53 53 53 46 44 44 51 59 55 49 50 44 44 44 46 59 55 53 55 54 50 53 52 50 52 46 46 50 52 55 57 56 56 57 57 56 56 58 59 60 61 58 58
53 53 53 53 53 53 53 53 53 53 53 53 48 46 44 51 58 58 51 47 47 47 45 43 47 48 54 52 50 51 50 46 46 50 51 50 47 52 55 56 58 59 59 60 55 54 56 58 59 59 60 62 62 62
53 53 53 53 53 53 53 53 53 52 51 45 43 46 53 57 52 50 46 44 44 44 45 47 49 48 55 49 48 49 46 45 43 47 48 44 42 48 53 55 57 59 59 59 59 58 59 59 60 60 60 63 64 63
52 53 53 53 53 53 53 52 52 49 47 49 47 50 51 50 48 46 44 46 46 46 49 48 51 52 53 54 49 49 46 46 42 48 46 41 44 48 52 55 57 57 60 61 61 59 59 61 60 60 61 60 61 63
51 52 52 52 52 53 53 52 52 52 51 51 48 48 49 47 39 43 41 42 43 50 51 50 50 52 54 52 48 48 46 44 49 44 42 42 46 49 52 55 60 59 61 62 62 64 66 63 63 63 62 62 62 61
52 52 52 52 52 52 52 52 52 51 46 45 46 37 42 41 44 45 45 46 51 52 51 50 50 50 49 50 48 46 48 51 43 39 41 43 45 48 50 53 55 58 59 60 62 61 60 63 62 63 62 62 60 57
52 52 51 51 51 51 51 51 52 48 44 44 48 39 44 49 48 51 52 52 53 53 52 51 50 50 48 50 47 46 45 44 43 41 42 46 49 48 50 54 54 56 55 54 57 59 59 58 58 57 59 60 57 56
52 51 50 51 51 51 51 51 50 48 48 47 48 46 49 47 47 49 51 52 57 54 53 52 48 48 47 46 46 44 45 41 42 44 46 48 49 51 53 54 55 56 53 53 54 55 55 55 55 54 55 54 54 54
49 45 51 51 50 50 52 49 47 46 47 51 48 51 49 49 48 48 50 51 55 53 47 47 46 46 47 44 44 43 44 44 46 47 48 49 50 50 52 53 54 54 53 53 54 54 54 55 55 54 52 53 53 53
45 48 50 49 48 48 48 47 46 49 48 48 44 47 50 51 50 49 50 53 53 50 49 49 50 45 41 43 42 42 45 45 47 48 47 49 51 52 54 51 52 53 55 55 57 56 54 53 52 51 52 54 53 51
47 48 50 51 50 45 42 46 47 45 48 48 48 49 50 50 50 51 51 52 52 53 51 48 45 42 41 44 46 45 46 46 47 48 50 51 52 53 53 53 53 52 53 55 53 51 51 53 52 52 54 52 51 50
50 51 51 50 50 44 46 47 52 48 45 48 50 49 49 48 50 51 52 52 51 50 48 45 44 45 44 45 47 47 49 50 49 48 48 50 51 52 51 51 50 51 51 53 52 49 52 53 52 53 52 51 50 50
49 48 49 48 47 46 47 49 48 47 47 47 48 49 47 49 48 48 48 50 50 46 45 46 46 47 48 48 50 49 50 50 49 49 48 48 54 53 50 50 51 53 54 54 51 50 48 50 52 53 53 51 52 51
47 50 48 48 46 50 48 50 48 48 48 50 49 49 47 45 44 45 47 48 50 46 48 47 49 48 49 49 51 52 52 52 51 49 48 48 48 48 48 49 50 49 52 50 51 51 51 53 54 54 52 52 51 53
52 51 48 51 46 42 45 51 48 50 46 46 47 46 44 44 46 49 45 46 47 49 49 50 51 51 51 53 53 52 53 51 49 49 49 48 49 49 50 49 53 51 51 53 54 53 52 52 53 53 54 55 52 55
52 47 44 44 44 40 51 48 51 48 48 46 45 42 42 44 48 46 43 50 49 48 49 51 50 49 50 50 49 50 50 50 49 49 50 49 48 51 51 51 52 53 53 53 51 51 55 56 52 53 55 57 54 54
41 42 42 33 44 44 46 46 46 45 43 45 44 41 43 45 43 41 39 49 46 47 49 50 50 49 48 48 48 49 50 50 49 49 50 53 51 52 51 52 53 53 53 53 52 53 54 54 55 55 56 57 57 55
33 43 41 44 43 45 45 44 44 45 48 46 46 47 46 48 45 36 43 46 47 48 49 49 49 48 48 49 48 48 50 51 50 48 53 52 51 51 54 53 53 54 57 57 57 60 58 57 57 59 58 59 52 59
36 44 45 49 48 48 46 49 50 47 48 47 46 46 46 43 40 44 47 49 48 50 51 51 50 50 50 50 51 51 55 53 53 53 53 53 55 56 58 57 55 59 58 60 59 59 58 57 57 62 60 62 60 61
43 46 43 46 46 48 48 47 48 47 49 49 50 47 46 46 42 46 48 51 52 52 51 52 52 52 52 52 53 54 54 53 55 55 55 55 55 56 57 57 58 52 57 59 60 59 58 59 59 59 59 58 58 61
43 46 47 47 49 48 47 46 46 46 48 47 44 43 44 48 50 49 50 51 52 51 50 50 50 51 51 52 56 55 55 54 55 53 53 52 57 59 57 58 57 59 57 58 52 55 60 60 60 61 60 58 58 59
44 47 45 46 45 43 44 46 46 48 49 48 48 48 48 48 50 51 51 51 51 50 52 54 54 52 51 52 51 53 55 57 59 59 54 55 58 59 59 60 59 59 61 62 59 59 50 54 55 57 59 58 58 57
46 46 44 44 43 45 46 48 49 50 49 47 47 45 45 46 49 52 52 53 56 57 55 53 53 55 54 55 53 56 58 61 62 64 62 62 63 62 63 60 59 62 64 61 59 58 59 59 60 58 59 60 61 58
44 43 42 42 43 47 48 46 45 44 46 45 44 46 46 46 46 50 54 55 54 53 53 53 55 55 56 55 56 58 53 60 62 61 60 59 59 59 61 61 61 62 64 64 61 62 63 62 60 59 59 59 59 59
43 44 44 44 43 44 47 46 46 46 47 47 48 49 50 50 50 55 59 60 55 53 53 54 55 57 60 62 60 62 57 61 56 47 46 47 47 51 56 58 60 62 64 61 60 62 62 61 60 59 59 59 58 57
MSLP
1014.41 1015.05 1015.77 1016.56 1017.42 1018.29 1018.97 1019.57 1020.06 1020.29 1020.43 1020.47 1020.44 1020.29 1019.94 1019.61 1019.33 1019.20 1017.94 1017.05 1017.14 1016.97 1015.25 1013.78 1013.12 1012.68 1012.18 1012.09 1012.28 1012.04 1011.87 1011.85 1011.99 1012.64 1013.11 1012.77 1012.09 1011.27 1010.82 1010.42 1010.54 1011.11 1011.68 1011.82 1011.93 1011.96 1011.61 1010.35 1009.08 1009.32 1008.57 1007.96 1007.80 1007.99
1013.67 1014.34 1015.17 1015.94 1016.78 1017.61 1018.49 1019.13 1019.47 1019.79 1020.03 1020.15 1020.20 1020.09 1019.88 1019.63 1019.34 1018.98 1018.41 1016.79 1016.57 1017.03 1015.57 1013.90 1012.92 1012.24 1011.94 1011.49 1012.13 1012.47 1012.97 1013.10 1013.31 1013.62 1013.92 1013.65 1013.18 1012.69 1012.39 1012.06 1011.61 1012.21 1012.53 1012.99 1013.13 1013.37 1013.31 1012.65 1012.77 1011.81 1010.94 1011.02 1009.79 1009.00
1013.11 1013.68 1014.45 1015.23 1016.07 1016.97 1017.77 1018.44 1018.93 1019.39 1019.55 1019.73 1019.88 1019.79 1019.67 1019.51 1019.27 1019.21 1018.81 1017.80 1017.05 1017.01 1015.53 1014.20 1012.29 1011.23 1011.15 1011.17 1011.44 1012.48 1012.97 1012.92 1013.44 1013.53 1014.11 1014.09 1013.81 1013.56 1013.35 1013.25 1012.73 1012.59 1012.89 1013.58 1013.79 1013.90 1013.51 1013.36 1012.86 1012.76 1012.38 1012.02 1010.96 1010.55
1012.47 1012.99 1013.77 1014.64 1015.50 1016.37 1017.23 1017.95 1018.51 1018.95 1019.14 1019.40 1019.53 1019.48 1019.39 1019.25 1019.05 1019.01 1018.96 1018.08 1017.82 1017.57 1016.69 1013.95 1011.82 1011.25 1010.67 1010.81 1011.17 1011.72 1012.31 1012.64 1013.05 1013.49 1014.06 1014.21 1014.05 1013.63 1013.52 1013.43 1013.66 1013.84 1013.78 1014.21 1014.41 1014.31 1013.35 1012.83 1013.11 1012.72 1011.71 1011.84 1011.59 1010.65
1011.83 1012.38 1013.15 1013.97 1014.92 1015.85 1016.76 1017.47 1018.05 1018.51 1018.82 1019.07 1019.15 1019.23 1019.19 1019.08 1018.83 1018.70 1018.60 1017.87 1017.44 1017.82 1017.20 1015.07 1012.93 1011.24 1010.85 1011.00 1011.23 1011.65 1012.28 1013.05 1013.76 1014.07 1014.38 1014.25 1013.46 1013.53 1013.61 1013.78 1014.21 1014.06 1014.19 1014.43 1014.71 1014.85 1014.40 1013.89 1013.50 1012.46 1011.80 1011.42 1011.70 1011.79
1011.21 1011.69 1012.58 1013.53 1014.55 1015.43 1016.35 1017.11 1017.65 1018.13 1018.55 1018.79 1018.88 1018.97 1018.98 1018.90 1018.61 1018.45 1018.17 1017.57 1017.13 1017.30 1017.15 1016.05 1012.98 1011.58 1011.18 1011.17 1011.40 1011.92 1012.44 1013.02 1013.56 1014.13 1014.12 1013.79 1013.17 1013.34 1014.00 1014.38 1014.17 1014.11 1014.07 1014.29 1014.89 1014.32 1014.08 1013.99 1013.44 1012.23 1010.85 1010.77 1010.42 1009.83
1010.74 1011.30 1012.12 1013.09 1014.14 1015.08 1016.05 1016.82 1017.47 1017.89 1018.25 1018.50 1018.62 1018.69 1018.67 1018.70 1018.92 1018.55 1017.94 1017.21 1017.10 1017.33 1017.23 1016.42 1014.25 1011.80 1011.25 1011.51 1011.93 1012.35 1012.50 1013.03 1013.52 1013.88 1013.99 1013.96 1013.73 1013.71 1014.23 1014.55 1014.09 1014.07 1014.07 1014.26 1014.28 1014.47 1014.17 1013.63 1013.39 1012.24 1010.41 1010.39 1009.79 1010.51
1010.59 1011.09 1011.91 1012.83 1013.86 1014.83 1015.80 1016.65 1017.29 1017.67 1017.96 1018.21 1018.39 1018.45 1018.43 1018.43 1018.40 1017.81 1016.13 1015.91 1017.06 1017.43 1017.24 1016.71 1014.75 1012.75 1011.63 1012.32 1012.91 1012.55 1012.98 1013.27 1013.39 1013.45 1013.65 1014.07 1014.34 1014.50 1014.69 1014.33 1014.03 1013.90 1013.92 1014.21 1014.03 1013.69 1013.32 1013.11 1013.02 1012.63 1011.18 1009.70 1009.75 1012.55
1010.81 1011.22 1011.99 1012.71 1013.77 1014.71 1015.71 1016.48 1017.03 1017.42 1017.87 1018.11 1018.31 1018.31 1018.45 1018.13 1017.60 1016.11 1015.70 1016.02 1016.45 1017.29 1017.04 1016.47 1015.23 1013.62 1011.93 1012.46 1012.98 1012.74 1012.91 1013.66 1013.46 1013.57 1013.76 1014.18 1014.86 1014.85 1013.83 1013.61 1013.56 1013.20 1013.09 1013.28 1013.63 1013.46 1013.25 1013.21 1012.87 1012.84 1012.02 1011.61 1010.15 1012.70
1010.97 1011.45 1011.99 1012.88 1013.86 1014.87 1015.60 1016.21 1016.89 1017.43 1017.85 1018.10 1018.35 1018.30 1017.62 1016.19 1015.53 1015.59 1016.03 1016.43 1016.61 1016.50 1016.61 1016.25 1014.64 1013.94 1012.84 1013.05 1013.52 1013.61 1013.70 1014.29 1014.27 1014.02 1013.79 1013.90 1014.48 1013.69 1012.95 1012.53 1012.58 1012.59 1012.57 1012.87 1013.11 1013.16 1013.19 1012.93 1012.40 1012.77 1012.18 1011.59 1011.80 1011.19
1011.07 1011.46 1012.02 1012.85 1013.89 1014.80 1015.37 1015.97 1016.80 1017.51 1017.93 1018.15 1017.94 1017.21 1015.82 1015.46 1015.59 1015.77 1016.10 1016.36 1016.22 1016.28 1015.63 1014.69 1014.19 1013.89 1012.81 1013.29 1013.88 1014.16 1014.47 1014.82 1014.88 1014.70 1014.54 1015.09 1015.81 1015.41 1014.08 1013.58 1013.33 1012.95 1012.49 1012.87 1012.96 1012.64 1012.11 1012.23 1012.64 1012.30 1012.19 1012.15 1011.55 1011.10
1010.99 1011.39 1011.88 1012.85 1013.87 1014.65 1015.29 1015.93 1016.69 1017.30 1017.28 1017.20 1017.23 1016.63 1015.96 1015.71 1015.70 1015.77 1015.58 1015.27 1015.19 1014.74 1013.94 1013.63 1013.36 1013.19 1012.88 1012.77 1013.76 1014.37 1014.71 1015.07 1015.17 1014.92 1015.24 1016.23 1016.58 1015.84 1014.86 1014.39 1013.81 1013.47 1012.86 1012.95 1012.96 1012.90 1012.63 1012.64 1012.83 1012.49 1012.35 1012.40 1012.19 1012.25
1010.67 1010.94 1011.54 1012.62 1013.77 1014.57 1015.30 1015.96 1016.59 1016.96 1016.75 1016.63 1016.79 1016.37 1015.70 1015.48 1015.50 1015.11 1014.75 1014.42 1014.04 1012.96 1012.75 1012.73 1013.07 1012.95 1012.71 1012.90 1013.97 1014.47 1014.86 1015.21 1014.95 1015.61 1016.37 1016.95 1016.75 1016.11 1015.25 1014.79 1014.39 1014.19 1013.36 1013.36 1013.20 1012.98 1013.15 1013.22 1013.05 1012.65 1012.53 1012.46 1012.43 1012.51
1009.86 1010.39 1011.51 1012.71 1013.63 1014.68 1015.55 1016.30 1016.80 1017.05 1017.24 1016.88 1016.25 1015.96 1015.28 1014.62 1014.18 1013.75 1013.30 1013.06 1012.47 1012.14 1012.27 1012.40 1012.93 1013.02 1013.25 1013.69 1014.13 1014.73 1014.95 1014.91 1015.58 1016.33 1016.84 1017.09 1016.74 1016.59 1016.17 1015.95 1015.83 1014.89 1014.37 1014.13 1014.22 1014.02 1013.90 1013.95 1013.83 1013.66 1013.62 1013.54 1013.67 1014.03
1009.63 1010.28 1011.77 1013.01 1013.95 1015.01 1016.02 1016.52 1016.81 1017.13 1017.16 1016.43 1015.28 1014.68 1014.25 1013.46 1013.00 1012.64 1012.45 1012.50 1011.72 1011.45 1012.04 1012.63 1012.94 1013.29 1013.79 1014.22 1014.75 1015.09 1015.29 1015.61 1016.32 1016.99 1017.29 1017.16 1016.98 1016.83 1016.61 1016.22 1016.04 1015.42 1015.09 1014.98 1014.63 1014.47 1014.45 1014.39 1014.40 1014.61 1014.55 1014.39 1014.83 1015.21
1010.18 1011.10 1012.20 1013.27 1014.38 1015.35 1016.09 1016.56 1016.86 1017.17 1016.53 1015.63 1014.56 1013.66 1013.15 1013.23 1012.77 1012.15 1011.99 1011.77 1011.05 1011.59 1012.05 1012.73 1013.55 1014.17 1014.60 1014.85 1015.37 1015.66 1016.02 1016.51 1016.72 1016.88 1016.93 1016.91 1017.00 1016.83 1016.69 1016.56 1015.87 1015.46 1015.67 1015.67 1015.51 1015.33 1015.20 1014.99 1015.00 1015.32 1015.64 1015.84 1016.00 1016.12
1011.11 1011.85 1012.70 1013.92 1014.85 1015.84 1016.30 1016.58 1017.20 1016.85 1015.79 1014.48 1013.72 1012.92 1012.84 1012.85 1012.73 1012.31 1011.96 1011.84 1011.38 1012.04 1013.39 1013.59 1014.24 1014.73 1014.93 1015.60 1016.23 1016.76 1016.87 1016.64 1016.68 1016.60 1016.95 1017.02 1016.79 1016.63 1016.59 1016.39 1016.20 1016.08 1015.95 1016.07 1016.15 1016.04 1015.75 1015.65 1016.06 1016.33 1016.46 1016.55 1016.63 1016.72
1012.60 1013.13 1013.76 1014.79 1015.62 1016.55 1017.22 1017.50 1017.14 1015.85 1014.92 1014.06 1013.61 1013.03 1012.53 1012.26 1012.37 1012.53 1012.28 1011.95 1012.14 1012.71 1013.33 1013.88 1014.20 1015.16 1016.27 1016.77 1016.86 1016.96 1016.83 1016.57 1016.63 1016.75 1016.74 1016.90 1016.77 1016.51 1016.37 1016.49 1016.40 1016.27 1016.29 1016.03 1015.99 1016.14 1016.12 1016.03 1016.21 1016.23 1016.26 1016.41 1016.44 1016.33
1013.69 1014.31 1014.99 1015.55 1016.00 1016.87 1017.15 1016.74 1016.25 1015.14 1014.14 1013.63 1013.12 1012.68 1012.63 1012.62 1012.67 1012.49 1012.60 1012.59 1012.54 1012.59 1013.38 1014.19 1015.23 1016.17 1016.73 1016.60 1016.27 1016.39 1016.57 1016.66 1016.52 1016.43 1016.47 1016.28 1016.29 1016.34 1016.31 1016.32 1016.42 1016.35 1016.14 1016.07 1016.10 1016.09 1016.05 1015.98 1016.13 1016.39 1016.52 1016.64 1016.81 1017.02
1014.85 1015.45 1015.78 1016.27 1016.54 1016.58 1015.95 1015.16 1014.35 1014.41 1013.89 1013.29 1012.83 1012.99 1013.07 1013.26 1013.06 1013.02 1013.11 1013.15 1013.19 1013.52 1014.47 1015.32 1015.99 1015.99 1016.30 1016.18 1016.19 1016.48 1016.64 1016.32 1015.97 1016.15 1016.42 1016.33 1016.17 1016.25 1016.41 1016.46 1016.38 1016.23 1016.14 1016.05 1016.07 1016.11 1016.04 1016.06 1016.05 1016.15 1016.32 1016.67 1017.22 1017.33
1016.03 1016.51 1016.58 1016.71 1016.31 1015.95 1015.15 1014.35 1014.17 1013.79 1013.41 1013.20 1013.03 1013.04 1013.49 1013.44 1013.83 1013.99 1013.94 1013.59 1013.88 1014.46 1015.30 1015.45 1015.61 1015.67 1015.83 1015.97 1015.95 1016.17 1016.37 1015.94 1016.07 1016.07 1016.22 1016.39 1016.23 1016.21 1016.44 1016.43 1016.27 1016.23 1016.19 1016.22 1016.31 1016.28 1016.24 1016.25 1016.15 1016.11 1016.26 1016.48 1016.64 1016.78
1016.22 1016.23 1016.40 1016.11 1015.69 1015.01 1014.65 1013.81 1013.79 1013.18 1013.23 1013.29 1013.39 1013.57 1014.18 1014.50 1014.60 1014.45 1014.22 1014.47 1014.75 1014.98 1015.11 1015.31 1015.41 1015.49 1015.79 1016.05 1015.93 1015.83 1015.70 1015.75 1015.80 1015.81 1015.80 1015.93 1016.37 1016.41 1016.44 1016.41 1016.40 1016.41 1016.26 1016.35 1016.37 1016.25 1016.26 1016.11 1016.02 1016.06 1016.16 1016.25 1016.48 1016.61
1016.11 1016.14 1015.92 1015.43 1015.38 1015.18 1014.52 1013.55 1013.52 1013.40 1013.67 1013.82 1013.85 1014.15 1014.43 1014.42 1014.25 1014.15 1014.67 1014.85 1015.05 1014.73 1014.78 1014.94 1015.01 1015.22 1015.54 1015.51 1015.44 1015.56 1015.58 1015.84 1016.05 1016.01 1016.07 1016.12 1016.12 1016.20 1016.34 1016.41 1016.31 1016.38 1016.39 1016.29 1016.06 1016.03 1016.02 1015.69 1015.61 1015.63 1015.58 1015.65 1015.89 1015.99
1015.55 1015.57 1015.31 1015.05 1014.89 1014.67 1013.93 1013.81 1013.61 1013.71 1013.74 1013.97 1014.25 1014.69 1014.76 1014.61 1014.35 1014.63 1015.23 1015.05 1015.08 1015.12 1015.15 1015.20 1015.27 1015.62 1015.84 1015.89 1016.01 1015.92 1015.96 1015.97 1016.09 1016.06 1016.03 1016.19 1016.29 1016.27 1016.25 1016.29 1016.32 1016.29 1016.19 1016.07 1015.99 1015.76 1015.67 1015.71 1015.58 1015.38 1015.28 1015.14 1015.03 1015.42
1016.17 1015.80 1015.58 1015.09 1014.51 1014.27 1013.73 1013.61 1013.62 1013.70 1013.82 1014.02 1014.35 1014.66 1014.70 1014.54 1014.85 1015.17 1015.39 1015.45 1015.35 1015.28 1015.49 1015.39 1015.44 1015.52 1015.79 1015.89 1015.84 1015.80 1015.79 1015.84 1015.89 1016.01 1015.98 1016.05 1016.25 1016.27 1016.30 1016.17 1016.01 1015.79 1015.71 1015.71 1015.81 1015.73 1015.54 1015.33 1015.11 1014.90 1014.81 1014.55 1014.51 1014.48
1015.91 1015.26 1014.97 1014.39 1014.19 1013.93 1013.65 1013.63 1013.65 1013.66 1013.76 1013.85 1014.03 1014.09 1014.15 1014.56 1015.01 1015.55 1015.62 1015.64 1015.71 1015.62 1015.60 1015.56 1015.66 1015.83 1015.88 1015.65 1015.79 1015.74 1015.68 1015.59 1015.75 1015.86 1015.75 1015.82 1015.98 1016.03 1015.81 1015.75 1015.55 1015.18 1014.73 1014.90 1015.11 1015.01 1014.87 1014.81 1014.76 1014.60 1014.49 1014.22 1014.32 1014.21
1015.65 1014.97 1014.36 1013.66 1013.64 1013.47 1013.39 1013.30 1013.35 1013.69 1013.70 1013.65 1013.92 1014.15 1014.34 1014.59 1015.09 1015.70 1015.52 1015.46 1015.63 1015.47 1015.25 1015.19 1015.40 1015.52 1015.53 1015.45 1015.43 1015.39 1015.40 1015.41 1015.41 1015.40 1015.36 1015.38 1015.29 1015.16 1015.21 1015.11 1014.87 1014.40 1013.96 1014.10 1014.31 1014.31 1014.47 1014.56 1014.70 1014.33 1014.16 1013.99 1013.95 1013.74
1015.59 1015.17 1014.70 1014.24 1013.66 1013.51 1013.68 1013.69 1013.69 1013.90 1013.90 1013.87 1013.82 1014.09 1014.35 1014.70 1015.45 1015.49 1015.35 1015.23 1015.05 1014.97 1015.00 1015.01 1015.02 1015.15 1015.16 1015.19 1015.23 1015.21 1015.25 1015.26 1015.22 1015.06 1014.97 1014.77 1014.51 1014.41 1014.30 1014.23 1014.07 1013.75 1013.80 1013.53 1013.61 1013.83 1014.01 1014.15 1014.16 1013.96 1013.99 1013.89 1013.73 1013.52
1015.58 1015.18 1014.74 1014.41 1014.13 1014.00 1014.57 1014.66 1014.78 1014.84 1014.79 1014.64 1014.88 1015.07 1015.03 1015.15 1015.13 1015.16 1015.16 1015.03 1014.95 1015.00 1015.08 1015.09 1015.21 1015.17 1015.18 1015.13 1015.05 1015.10 1015.25 1015.24 1015.25 1015.08 1014.89 1014.79 1014.37 1013.80 1013.41 1013.57 1013.65 1013.51 1013.49 1013.55 1013.49 1013.41 1013.39 1013.43 1013.47 1013.49 1013.55 1013.63 1013.61 1013.53
1015.93 1015.42 1015.42 1015.18 1015.07 1015.45 1015.85 1015.66 1015.65 1015.39 1015.22 1015.31 1015.45 1015.39 1015.29 1015.29 1015.26 1015.02 1014.96 1014.92 1014.94 1014.87 1014.89 1015.03 1014.93 1014.95 1015.13 1015.07 1015.04 1014.95 1014.74 1014.69 1014.64 1014.47 1014.29 1014.15 1013.80 1013.48 1013.11 1013.05 1013.10 1013.23 1013.26 1013.11 1013.26 1013.28 1013.26 1013.37 1013.46 1013.56 1013.47 1013.43 1013.63 1013.57
1016.04 1015.91 1015.94 1015.92 1016.04 1016.17 1016.07 1015.80 1015.59 1015.49 1015.56 1015.68 1015.79 1015.92 1015.94 1015.71 1015.25 1014.79 1014.67 1014.59 1014.45 1014.53 1014.69 1014.73 1014.67 1014.49 1014.69 1014.75 1014.86 1014.78 1014.31 1013.63 1013.75 1013.52 1013.33 1013.04 1012.88 1012.80 1012.86 1012.67 1012.55 1012.59 1012.59 1012.67 1012.95 1013.26 1013.30 1013.20 1013.31 1013.37 1013.27 1012.95 1013.10 1013.36
1016.55 1016.53 1016.46 1016.40 1016.34 1016.25 1016.11 1016.09 1016.00 1015.95 1015.92 1015.91 1015.96 1015.99 1015.94 1015.81 1015.45 1014.81 1014.21 1014.12 1014.34 1014.57 1014.65 1014.71 1014.86 1014.69 1014.43 1014.48 1014.53 1014.37 1014.08 1013.69 1013.29 1013.26 1013.21 1012.77 1012.97 1012.79 1012.35 1012.06 1011.95 1012.02 1012.22 1012.41 1012.59 1012.59 1012.68 1013.08 1013.02 1012.83 1012.68 1012.74 1012.72 1012.78
1016.77 1016.74 1016.70 1016.62 1016.45 1016.22 1016.05 1015.89 1015.66 1015.52 1015.41 1015.46 1015.40 1015.40 1015.44 1015.27 1014.73 1014.10 1013.69 1013.94 1014.16 1014.35 1014.44 1014.31 1014.26 1014.21 1014.13 1013.85 1013.50 1013.19 1013.05 1013.06 1013.23 1013.11 1012.75 1012.51 1012.49 1012.52 1012.49 1012.41 1012.15 1011.81 1011.63 1011.90 1012.04 1011.77 1011.98 1012.17 1012.48 1012.35 1012.19 1012.31 1012.30 1012.30
Wind_Speed
22 24 25 25 23 21 19 16 14 11 9 7 6 8 11 13 14 6 5 4 4 1 7 4 5 4 5 4 3 5 5 7 5 6 3 3 1 2 1 1 4 3 1 2 2 3 3 14 7 3 6 3 9 8
21 24 25 25 24 22 19 18 13 11 9 7 6 7 9 11 13 11 3 3 1 4 8 4 8 9 5 2 4 5 5 1 2 3 2 2 3 3 3 1 6 3 4 3 2 2 2 7 8 15 13 12 12 6
20 24 25 26 24 22 20 17 14 13 9 7 7 7 8 10 11 9 3 4 4 3 6 4 6 8 1 3 5 5 2 3 1 5 4 3 0 2 2 2 2 6 3 3 5 5 12 5 4 10 14 16 21 20
19 24 26 26 24 22 20 17 15 13 10 8 7 6 8 9 9 9 2 2 3 1 1 8 3 4 3 3 3 5 5 4 2 3 2 2 1 4 3 3 3 2 4 3 1 4 8 4 12 12 14 21 22 19
18 23 26 26 25 23 20 18 16 13 9 8 7 6 7 9 10 6 3 4 2 5 3 6 9 7 4 5 3 2 4 3 2 2 1 3 1 3 1 3 2 1 3 3 3 4 5 3 9 12 11 12 18 26
17 22 25 25 24 23 21 18 16 14 11 8 7 6 6 8 11 2 2 2 4 2 3 4 5 3 2 4 2 1 1 2 3 3 3 2 1 4 3 1 3 2 4 3 2 4 3 7 5 6 7 19 27 32
15 22 26 26 25 23 20 17 15 13 10 8 6 6 6 7 2 2 4 3 4 2 3 4 5 5 6 3 2 1 2 2 3 1 1 3 2 4 2 1 4 5 5 4 5 4 6 3 2 3 13 20 29 31
12 21 24 25 24 22 19 17 14 11 9 6 5 6 8 10 7 6 4 12 6 2 2 1 6 3 5 2 1 3 1 2 2 4 2 3 3 3 1 3 4 5 6 5 6 7 6 4 6 6 4 8 18 5
13 20 23 24 23 20 18 16 13 11 8 4 5 7 4 1 2 4 7 12 1 3 2 0 2 4 1 2 1 3 2 1 2 3 3 5 1 4 8 8 8 8 4 4 7 6 6 7 6 3 7 3 12 9
14 20 23 23 21 19 19 17 13 10 6 2 1 1 2 5 7 6 5 2 3 1 1 3 1 3 2 1 2 2 3 1 2 3 1 4 5 6 6 7 8 7 4 6 5 2 7 6 4 1 3 4 4 6
14 21 24 25 21 20 18 17 14 11 3 1 3 4 2 2 3 1 2 3 2 2 3 5 5 3 3 4 2 1 2 1 2 5 3 2 4 6 10 10 3 1 7 9 6 5 7 5 1 4 5 4 3 7
10 23 25 24 21 20 18 18 16 5 3 3 2 4 2 1 1 2 4 2 4 6 3 5 5 6 2 4 4 2 2 3 2 2 4 3 4 7 6 10 10 4 7 7 3 3 1 2 2 2 2 5 6 8
11 23 28 25 22 20 19 17 15 4 4 0 1 2 3 2 2 5 6 3 3 3 2 2 1 3 4 4 3 3 2 3 1 4 2 2 4 4 4 7 8 8 9 11 11 9 7 3 5 5 6 7 10 11
16 26 27 25 24 19 16 13 8 3 2 2 4 2 5 4 5 5 5 5 6 3 4 4 2 4 1 4 3 3 2 2 2 1 2 2 3 3 5 5 9 4 7 8 8 7 7 8 5 6 7 6 9 9
22 28 27 25 24 19 15 11 8 2 1 3 3 5 5 4 3 5 5 2 3 4 4 4 4 4 2 4 3 3 3 1 3 1 2 2 4 3 4 5 8 1 7 6 6 7 7 7 7 7 6 7 7 6
25 25 9 25 23 19 14 7 3 0 3 3 4 2 2 2 5 2 3 2 2 3 3 4 3 4 3 4 2 1 1 2 4 2 3 2 3 4 4 3 1 6 5 5 6 5 6 7 6 3 5 6 6 7
14 2 27 24 22 17 7 4 2 3 4 3 3 3 4 3 3 0 2 1 1 5 3 4 4 0 2 3 3 4 1 3 2 2 2 3 3 2 1 3 5 4 4 3 2 2 2 2 4 5 6 3 6 5
7 17 28 26 15 7 3 2 3 4 4 4 1 5 1 2 3 3 3 4 5 3 3 3 3 5 3 3 2 3 3 3 3 4 3 4 2 2 3 3 2 4 1 2 4 3 2 5 4 3 5 5 5 5
13 14 22 19 7 4 5 4 4 3 4 2 3 2 1 3 1 1 3 4 1 3 5 3 6 2 3 4 4 2 2 3 3 4 3 4 3 4 2 3 3 3 2 1 3 1 1 4 4 4 5 4 3 2
23 19 13 7 2 3 4 3 3 1 3 4 0 2 4 3 1 2 4 4 2 3 4 3 4 4 4 3 3 2 3 4 2 2 2 2 1 4 4 3 1 1 1 2 2 2 1 2 2 4 4 4 5 3
9 2 3 2 3 3 3 1 2 4 2 2 2 3 2 3 4 4 3 3 4 2 3 1 2 3 3 1 2 3 4 2 1 3 3 2 1 5 3 1 2 2 1 0 1 1 1 2 1 1 2 1 3 4
2 8 1 3 3 1 2 2 2 3 3 0 4 3 3 2 0 1 1 4 3 2 4 4 3 3 2 3 4 4 2 3 3 1 2 5 3 2 1 1 1 2 2 2 2 3 2 2 1 1 2 3 4 4
9 2 3 1 1 2 4 2 3 2 3 1 2 3 3 2 2 1 3 1 1 1 1 2 3 5 5 3 3 3 2 3 2 2 2 2 2 2 2 1 2 2 2 2 2 2 3 5 4 4 4 4 3 4
2 3 4 3 2 1 0 1 1 2 2 3 2 2 1 1 3 3 2 2 2 2 2 3 2 2 2 4 2 2 1 1 1 1 2 3 2 1 2 2 2 3 4 3 3 3 3 3 5 4 4 5 5 5
3 4 2 4 3 1 1 2 2 2 2 2 3 1 3 1 2 2 1 1 3 3 3 3 4 4 3 2 2 2 1 2 1 3 2 2 1 1 2 4 4 5 3 2 3 3 4 3 4 3 4 1 4 3
2 2 3 1 1 2 3 3 2 2 2 2 2 2 2 1 3 2 0 1 1 2 2 2 2 2 1 3 3 2 2 2 2 1 2 4 4 4 2 2 2 4 4 5 4 6 2 4 4 6 4 2 2 5
4 3 3 4 1 0 3 3 3 2 3 3 3 2 2 2 2 1 0 2 2 2 2 2 3 3 3 2 1 2 2 2 3 2 1 4 5 4 4 4 5 5 3 5 5 4 5 4 4 1 3 3 2 5
2 3 4 6 2 2 3 3 1 3 4 4 2 2 1 2 1 3 3 3 2 1 1 1 1 2 1 1 3 3 2 2 4 4 3 4 4 5 6 5 6 7 2 1 5 5 6 5 5 2 1 1 2 3
3 4 3 4 3 4 5 5 4 3 3 3 3 3 1 1 2 2 1 2 2 1 1 2 3 2 1 1 1 1 1 1 3 6 7 4 5 5 4 4 4 4 3 3 4 5 6 4 5 4 4 3 3 1
3 4 4 6 5 5 3 3 2 3 3 2 1 4 4 3 1 1 1 2 3 3 1 3 2 1 1 3 1 3 4 4 4 6 5 6 7 6 3 4 3 4 4 5 5 4 1 1 3 3 3 2 1 2
2 4 4 4 3 2 2 3 2 2 2 2 2 1 1 3 4 2 2 2 3 3 2 2 3 2 3 2 2 3 5 3 6 10 8 8 8 3 4 5 5 5 6 6 1 1 4 4 3 5 5 5 5 6
3 3 2 3 2 3 3 1 1 1 1 1 1 1 2 2 2 3 3 2 1 2 5 3 2 4 4 4 4 5 9 6 5 3 5 4 2 3 2 2 4 5 5 6 5 3 6 5 4 6 5 5 6 7
1 1 1 1 1 1 1 2 2 3 0 0 2 4 4 3 1 3 1 3 3 4 4 4 5 4 5 6 8 7 8 5 5 5 4 5 3 2 2 2 2 2 4 5 4 4 8 8 6 5 6 5 3 4
Wind_Direction
205 196 192 191 192 193 198 204 224 224 238 259 293 321 337 344 345 1 273 241 128 251 285 315 330 32 345 32 73 283 42 356 18 46 77 283 234 262 254 22 337 125 334 288 71 136 255 346 326 318 232 191 176 188
202 195 192 190 189 188 191 202 214 214 225 248 278 310 331 342 345 349 292 322 292 144 241 262 258 241 240 228 131 354 164 149 214 66 8 323 356 347 14 304 337 50 150 204 166 165 266 4 36 352 10 334 302 258
204 196 192 189 188 185 187 195 206 212 214 235 265 298 322 337 347 353 274 293 17 33 309 5 263 265 182 202 162 113 324 173 14 172 175 233 79 134 12 285 317 359 32 44 44 309 339 1 350 21 1 332 316 313
204 196 191 188 186 181 183 189 200 209 210 225 254 290 314 328 338 339 287 282 111 282 176 282 287 124 160 132 120 153 162 32 111 93 144 213 181 161 215 196 116 229 19 320 341 319 321 340 8 335 350 18 343 297
206 196 190 185 182 179 180 187 191 196 205 220 244 278 306 322 322 299 219 256 209 139 219 278 312 255 153 148 155 23 99 93 69 29 99 248 257 91 311 88 7 57 201 105 245 193 239 299 330 316 320 4 1 341
208 192 184 179 177 176 178 185 187 190 194 212 238 273 306 324 334 349 59 291 19 64 80 327 278 216 132 155 196 347 195 134 125 149 236 277 285 106 86 153 249 230 251 158 87 224 246 265 313 338 336 23 8 335
208 186 177 173 172 172 174 179 187 182 183 206 238 277 304 313 10 180 202 222 40 14 90 321 305 274 154 140 358 351 27 170 140 211 249 160 307 69 84 183 224 214 241 207 197 178 252 320 254 332 78 66 52 339
199 179 173 168 166 165 166 174 177 173 182 204 248 283 293 289 281 299 248 239 136 123 113 222 272 13 156 195 282 180 203 58 281 204 15 112 5 52 304 235 187 222 210 189 224 222 226 232 270 298 336 107 97 243
179 168 164 163 160 159 165 166 165 169 180 201 264 295 332 101 220 237 105 121 101 126 163 18 197 235 67 210 216 332 107 130 307 170 228 99 176 207 222 192 181 209 206 251 169 209 221 242 258 286 284 324 116 178
175 168 158 156 153 162 164 158 155 156 163 183 11 186 246 222 124 109 25 46 16 295 60 219 266 274 97 65 359 65 23 85 11 266 344 139 228 286 251 200 173 196 253 17 29 322 239 253 269 179 201 242 213 141
176 166 162 156 160 166 161 149 141 133 97 164 209 221 269 185 66 100 186 141 210 238 205 228 180 216 305 112 147 69 157 356 61 278 86 360 19 332 350 36 334 221 88 78 124 168 167 151 135 329 331 329 37 70
211 173 159 155 161 162 153 145 152 156 188 223 266 278 290 100 76 180 201 269 170 217 223 157 215 186 257 110 90 340 90 43 261 291 57 51 281 284 2 30 358 347 111 105 119 198 215 179 180 201 319 348 18 21
235 177 158 153 160 154 152 156 165 44 338 28 198 243 135 226 117 188 184 236 228 242 205 110 95 137 17 53 64 81 73 248 70 47 124 206 261 296 47 34 8 342 63 64 41 38 89 34 308 345 17 42 53 52
190 162 151 149 145 139 142 152 147 66 48 223 172 177 176 207 214 202 188 194 235 161 129 106 64 116 142 59 138 98 228 105 75 27 243 263 257 334 5 359 338 46 32 58 64 55 57 30 48 51 77 80 84 68
151 143 141 147 142 129 122 118 126 82 268 245 217 198 212 235 258 231 227 285 268 152 96 54 37 92 31 91 40 66 8 309 59 226 228 218 200 121 62 4 319 272 73 39 24 43 33 33 50 46 31 70 80 80
144 124 134 141 142 132 122 126 71 350 253 238 238 295 311 103 291 293 186 170 357 81 61 58 87 61 37 111 127 170 38 118 247 198 221 229 194 193 189 216 349 54 70 71 50 21 27 16 21 79 76 78 79 83
76 19 135 130 121 119 92 73 58 246 264 255 274 242 192 207 210 83 78 268 260 72 99 84 62 94 132 77 55 3 240 195 240 204 127 235 223 264 274 81 41 27 53 66 94 61 337 325 125 114 113 103 103 97
85 109 110 112 107 93 44 17 258 252 240 256 297 288 7 108 81 23 355 3 63 82 74 152 135 59 63 116 238 228 248 269 263 252 198 214 228 195 129 121 46 48 79 71 64 55 97 110 120 122 136 127 94 76
120 118 119 122 105 110 178 217 200 265 242 255 270 266 109 79 13 133 93 25 43 118 88 42 65 103 193 219 223 205 249 212 236 218 221 240 217 187 144 81 75 34 28 2 23 22 155 134 151 161 153 141 143 164
113 119 102 111 2 218 187 237 180 244 279 246 48 89 123 138 160 21 32 27 60 74 59 74 174 201 189 222 169 175 257 245 214 119 281 277 242 125 112 128 181 264 336 330 323 281 114 84 93 127 133 143 137 172
100 118 174 211 237 219 288 241 217 217 253 40 306 77 45 37 38 32 358 350 57 116 74 210 206 182 144 32 196 185 255 104 88 143 172 186 146 128 131 100 359 335 14 220 241 257 166 177 272 135 126 151 169 181
88 196 299 214 293 232 273 250 217 268 71 247 36 52 79 81 77 273 258 50 57 242 163 172 181 178 172 223 205 181 150 52 13 336 90 117 120 110 107 138 52 279 295 240 253 211 202 205 150 183 174 223 199 202
153 206 259 266 216 97 251 2 38 20 79 354 31 55 10 19 238 104 50 65 163 286 108 128 165 176 195 195 100 70 74 74 81 83 97 114 127 127 134 200 234 265 274 289 249 223 203 212 218 229 245 253 211 202
311 334 352 1 101 302 25 55 40 54 41 48 64 65 9 305 343 56 112 192 198 155 157 181 127 119 50 87 119 180 245 73 267 249 171 149 137 245 215 235 226 229 227 253 282 220 227 246 267 266 261 256 237 180
329 314 82 335 304 335 105 71 68 77 104 143 93 330 269 77 87 55 160 332 343 79 84 94 70 66 134 170 205 224 212 147 187 187 228 128 124 356 249 238 244 246 224 273 262 251 268 258 265 285 240 57 69 96
57 196 132 276 239 127 152 124 136 116 132 175 139 196 120 176 102 231 154 226 155 120 114 110 135 106 263 209 186 184 218 184 130 160 237 182 198 205 210 239 276 280 207 195 209 224 248 285 313 327 276 273 95 126
33 350 272 222 176 309 10 49 98 130 208 161 174 160 146 179 134 125 159 358 106 238 206 174 147 176 207 229 110 128 139 198 219 218 234 210 231 222 212 253 240 239 238 191 204 216 230 244 269 286 64 346 264 147
325 336 350 308 2 189 176 192 208 50 34 348 36 136 127 64 141 227 180 225 199 235 260 276 161 121 37 219 143 148 223 283 312 309 309 285 248 239 244 240 240 231 255 268 186 209 201 211 226 291 320 327 268 305
336 299 342 342 336 33 38 32 34 29 335 37 49 29 48 106 177 124 315 316 332 109 27 354 4 47 42 358 219 146 132 136 344 315 310 309 290 274 211 222 235 256 251 231 226 187 197 200 189 199 210 191 228 285
350 359 13 6 29 48 23 27 1 321 43 82 24 351 11 29 271 316 347 319 297 245 172 141 169 119 98 89 350 294 253 227 232 243 233 251 224 259 276 223 251 244 230 214 224 242 266 329 338 338 316 307 305 87
9 21 30 29 58 53 302 301 4 9 42 55 28 95 305 312 316 269 232 247 249 134 83 4 324 30 328 286 245 276 277 285 203 244 257 258 255 247 253 240 229 209 217 222 274 264 251 236 219 264 257 186 207 220
26 36 35 13 13 342 4 331 282 78 26 54 348 34 335 335 287 259 245 190 131 177 219 206 242 256 253 261 254 252 248 281 283 262 238 104 148 257 279 84 125 114 109 119 140 144 27 293 242 194 216 249 245 255
146 137 160 236 251 318 351 37 332 320 299 51 179 186 198 229 191 249 335 188 204 211 232 226 231 253 271 270 247 247 220 192 222 228 158 117 114 21 2 348 310 183 161 178 204 166 211 208 193 170 157 194 227 258